Time,TemperatureF,DewpointF,PressureIn,WindDirection,WindDirectionDegrees,WindSpeedMPH,WindSpeedGustMPH,Humidity,HourlyPrecipIn,Conditions,Clouds,dailyrainin,SoftwareType,DateUTC
2013-01-12 00:11:00,41.0,41.0,30.14,North,0,0.0,2.0,97,-99.99,,,-99.99,,2013-01-12 05:11:00,
2013-01-12 00:22:00,41.0,41.0,30.14,North,0,0.0,2.0,97,-99.99,,,-99.99,,2013-01-12 05:22:00,
2013-01-12 00:32:00,41.0,41.0,30.11,North,0,0.0,4.0,97,-99.99,,,-99.99,,2013-01-12 05:32:00,
2013-01-12 00:42:00,41.0,41.0,30.11,North,0,0.0,4.0,97,-99.99,,,-99.99,,2013-01-12 05:42:00,
2013-01-12 00:52:00,41.0,41.0,30.10,North,0,0.0,4.0,97,-99.99,,,-99.99,,2013-01-12 05:52:00,
2013-01-12 01:02:00,41.0,41.0,30.10,North,0,0.0,4.0,97,-99.99,,,-99.99,,2013-01-12 06:02:00,
2013-01-12 01:11:00,41.0,41.0,30.10,North,0,0.0,4.0,97,-99.99,,,-99.99,,2013-01-12 06:11:00,
2013-01-12 01:22:00,41.0,41.0,30.10,North,0,0.0,4.0,97,-99.99,,,-99.99,,2013-01-12 06:22:00,
2013-01-12 01:32:00,41.0,41.0,30.09,North,0,0.0,2.0,97,-99.99,,,-99.99,,2013-01-12 06:32:00,
2013-01-12 01:42:00,42.0,41.0,30.09,North,0,0.0,2.0,98,-99.99,,,-99.99,,2013-01-12 06:42:00,
2013-01-12 01:52:00,42.0,41.0,30.09,North,0,0.0,2.0,98,-99.99,,,-99.99,,2013-01-12 06:52:00,
2013-01-12 02:01:00,42.0,41.0,30.09,North,0,0.0,2.0,98,-99.99,,,-99.99,,2013-01-12 07:01:00,
2013-01-12 02:11:00,42.0,42.0,30.10,North,0,0.0,0.0,98,-99.99,,,-99.99,,2013-01-12 07:11:00,
2013-01-12 02:21:00,42.0,42.0,30.10,North,0,0.0,0.0,98,-99.99,,,-99.99,,2013-01-12 07:21:00,
2013-01-12 02:32:00,42.0,42.0,30.10,North,0,0.0,0.0,98,-99.99,,,-99.99,,2013-01-12 07:32:00,
2013-01-12 02:42:00,42.0,42.0,30.10,North,0,0.0,0.0,97,-99.99,,,-99.99,,2013-01-12 07:42:00,
2013-01-12 02:52:00,42.0,42.0,30.10,North,0,0.0,0.0,98,-99.99,,,-99.99,,2013-01-12 07:52:00,
2013-01-12 03:01:00,42.0,42.0,30.10,North,0,0.0,0.0,98,-99.99,,,-99.99,,2013-01-12 08:01:00,
2013-01-12 03:11:00,42.0,42.0,30.10,North,0,0.0,0.0,98,-99.99,,,-99.99,,2013-01-12 08:11:00,
2013-01-12 03:22:00,42.0,42.0,30.10,North,0,0.0,0.0,98,-99.99,,,-99.99,,2013-01-12 08:22:00,
2013-01-12 03:32:00,43.0,43.0,30.12,North,0,0.0,4.0,98,-99.99,,,-99.99,,2013-01-12 08:32:00,
2013-01-12 03:42:00,43.0,43.0,30.12,North,0,0.0,4.0,98,-99.99,,,-99.99,,2013-01-12 08:42:00,
2013-01-12 03:52:00,43.0,42.0,30.11,North,0,0.0,7.0,98,-99.99,,,-99.99,,2013-01-12 08:52:00,
2013-01-12 04:02:00,43.0,42.0,30.11,North,0,0.0,7.0,98,-99.99,,,-99.99,,2013-01-12 09:02:00,
2013-01-12 04:11:00,43.0,42.0,30.11,North,0,0.0,7.0,98,-99.99,,,-99.99,,2013-01-12 09:11:00,
2013-01-12 04:21:00,43.0,42.0,30.11,North,0,0.0,7.0,98,-99.99,,,-99.99,,2013-01-12 09:21:00,
2013-01-12 04:32:00,42.0,42.0,30.11,North,0,0.0,2.0,98,-99.99,,,-99.99,,2013-01-12 09:32:00,
2013-01-12 04:42:00,43.0,42.0,30.09,North,0,0.0,2.0,98,-99.99,,,-99.99,,2013-01-12 09:42:00,
2013-01-12 04:52:00,42.0,42.0,30.10,North,0,0.0,2.0,99,-99.99,,,-99.99,,2013-01-12 09:52:00,
2013-01-12 05:02:00,42.0,42.0,30.10,North,0,0.0,2.0,99,-99.99,,,-99.99,,2013-01-12 10:02:00,
2013-01-12 05:11:00,42.0,42.0,30.09,North,0,0.0,2.0,98,-99.99,,,-99.99,,2013-01-12 10:11:00,
2013-01-12 05:22:00,42.0,42.0,30.09,North,0,0.0,2.0,98,-99.99,,,-99.99,,2013-01-12 10:22:00,
2013-01-12 05:32:00,42.0,42.0,30.09,North,0,0.0,2.0,99,-99.99,,,-99.99,,2013-01-12 10:32:00,
2013-01-12 05:42:00,42.0,42.0,30.09,North,0,0.0,2.0,99,-99.99,,,-99.99,,2013-01-12 10:42:00,
2013-01-12 05:52:00,43.0,42.0,30.10,North,0,0.0,2.0,98,-99.99,,,-99.99,,2013-01-12 10:52:00,
2013-01-12 06:02:00,43.0,42.0,30.10,North,0,0.0,2.0,98,-99.99,,,-99.99,,2013-01-12 11:02:00,
2013-01-12 06:11:00,43.0,42.0,30.10,North,0,0.0,2.0,98,-99.99,,,-99.99,,2013-01-12 11:11:00,
2013-01-12 06:22:00,43.0,42.0,30.10,North,0,0.0,2.0,98,-99.99,,,-99.99,,2013-01-12 11:22:00,
2013-01-12 06:32:00,42.0,42.0,30.13,North,0,0.0,2.0,99,-99.99,,,-99.99,,2013-01-12 11:32:00,
2013-01-12 06:42:00,42.0,42.0,30.14,North,0,0.0,0.0,99,-99.99,,,-99.99,,2013-01-12 11:42:00,
2013-01-12 06:52:00,42.0,42.0,30.14,North,0,0.0,0.0,99,-99.99,,,-99.99,,2013-01-12 11:52:00,
2013-01-12 07:02:00,42.0,42.0,30.14,North,0,0.0,0.0,99,-99.99,,,-99.99,,2013-01-12 12:02:00,
2013-01-12 07:11:00,42.0,42.0,30.14,North,0,0.0,0.0,98,-99.99,,,-99.99,,2013-01-12 12:11:00,
2013-01-12 07:22:00,42.0,42.0,30.14,North,0,0.0,0.0,98,-99.99,,,-99.99,,2013-01-12 12:22:00,
2013-01-12 07:32:00,42.0,42.0,30.14,North,0,0.0,2.0,99,-99.99,,,-99.99,,2013-01-12 12:32:00,
2013-01-12 07:42:00,42.0,42.0,30.13,North,0,0.0,4.0,99,-99.99,,,-99.99,,2013-01-12 12:42:00,
2013-01-12 07:52:00,42.0,42.0,30.14,North,0,0.0,2.0,99,-99.99,,,-99.99,,2013-01-12 12:52:00,
2013-01-12 08:02:00,42.0,42.0,30.14,North,0,0.0,2.0,99,-99.99,,,-99.99,,2013-01-12 13:02:00,
2013-01-12 08:11:00,42.0,42.0,30.14,North,0,0.0,2.0,99,-99.99,,,-99.99,,2013-01-12 13:11:00,
2013-01-12 08:22:00,42.0,42.0,30.14,North,0,0.0,2.0,99,-99.99,,,-99.99,,2013-01-12 13:22:00,
2013-01-12 08:32:00,42.0,42.0,30.14,North,0,0.0,2.0,99,-99.99,,,-99.99,,2013-01-12 13:32:00,
2013-01-12 08:42:00,42.0,42.0,30.16,North,0,0.0,0.0,99,-99.99,,,-99.99,,2013-01-12 13:42:00,
2013-01-12 08:52:00,42.0,42.0,30.17,North,0,0.0,2.0,99,-99.99,,,-99.99,,2013-01-12 13:52:00,
2013-01-12 09:01:00,42.0,42.0,30.17,North,0,0.0,2.0,99,-99.99,,,-99.99,,2013-01-12 14:01:00,
2013-01-12 09:11:00,42.0,42.0,30.17,North,0,0.0,2.0,99,-99.99,,,-99.99,,2013-01-12 14:11:00,
2013-01-12 09:22:00,42.0,42.0,30.17,North,0,0.0,2.0,99,-99.99,,,-99.99,,2013-01-12 14:22:00,
2013-01-12 09:32:00,42.0,42.0,30.16,North,0,0.0,2.0,99,-99.99,,,-99.99,,2013-01-12 14:32:00,
2013-01-12 09:42:00,42.0,42.0,30.16,North,0,0.0,2.0,98,-99.99,,,-99.99,,2013-01-12 14:42:00,
2013-01-12 09:53:00,42.0,42.0,30.17,North,0,0.0,2.0,99,-99.99,,,-99.99,,2013-01-12 14:53:00,
2013-01-12 10:02:00,42.0,42.0,30.17,North,0,0.0,2.0,99,-99.99,,,-99.99,,2013-01-12 15:02:00,
2013-01-12 10:11:00,42.0,42.0,30.16,North,0,0.0,2.0,99,-99.99,,,-99.99,,2013-01-12 15:11:00,
2013-01-12 10:22:00,42.0,42.0,30.16,North,0,0.0,2.0,99,-99.99,,,-99.99,,2013-01-12 15:22:00,
2013-01-12 10:33:00,42.0,42.0,30.16,North,0,0.0,2.0,98,-99.99,,,-99.99,,2013-01-12 15:33:00,
2013-01-12 10:42:00,42.0,42.0,30.16,North,0,0.0,2.0,99,-99.99,,,-99.99,,2013-01-12 15:42:00,
2013-01-12 10:52:00,42.0,42.0,30.16,North,0,0.0,2.0,98,-99.99,,,-99.99,,2013-01-12 15:52:00,
2013-01-12 11:02:00,42.0,42.0,30.16,North,0,0.0,2.0,98,-99.99,,,-99.99,,2013-01-12 16:02:00,
2013-01-12 11:12:00,42.0,42.0,30.16,North,0,0.0,2.0,98,-99.99,,,-99.99,,2013-01-12 16:12:00,
2013-01-12 11:22:00,42.0,42.0,30.16,North,0,0.0,2.0,98,-99.99,,,-99.99,,2013-01-12 16:22:00,
2013-01-12 11:32:00,42.0,42.0,30.16,North,0,0.0,0.0,97,-99.99,,,-99.99,,2013-01-12 16:32:00,
2013-01-12 11:42:00,42.0,42.0,30.16,North,0,0.0,2.0,98,-99.99,,,-99.99,,2013-01-12 16:42:00,
2013-01-12 11:52:00,42.0,42.0,30.15,North,0,0.0,0.0,98,-99.99,,,-99.99,,2013-01-12 16:52:00,
2013-01-12 12:02:00,42.0,42.0,30.15,North,0,0.0,0.0,98,-99.99,,,-99.99,,2013-01-12 17:02:00,
2013-01-12 12:12:00,42.0,42.0,30.15,North,0,0.0,0.0,98,-99.99,,,-99.99,,2013-01-12 17:12:00,
2013-01-12 12:22:00,42.0,42.0,30.15,North,0,0.0,0.0,98,-99.99,,,-99.99,,2013-01-12 17:22:00,
2013-01-12 12:32:00,42.0,42.0,30.15,North,0,0.0,2.0,97,-99.99,,,-99.99,,2013-01-12 17:32:00,
2013-01-12 12:42:00,42.0,42.0,30.15,North,0,0.0,2.0,97,-99.99,,,-99.99,,2013-01-12 17:42:00,
2013-01-12 12:52:00,42.0,42.0,30.15,North,0,0.0,0.0,97,-99.99,,,-99.99,,2013-01-12 17:52:00,
2013-01-12 13:02:00,42.0,42.0,30.15,North,0,0.0,0.0,97,-99.99,,,-99.99,,2013-01-12 18:02:00,
2013-01-12 13:11:00,42.0,42.0,30.14,North,0,0.0,0.0,97,-99.99,,,-99.99,,2013-01-12 18:11:00,
2013-01-12 13:22:00,42.0,42.0,30.14,North,0,0.0,0.0,97,-99.99,,,-99.99,,2013-01-12 18:22:00,
2013-01-12 13:32:00,42.0,42.0,30.14,North,0,0.0,0.0,97,-99.99,,,-99.99,,2013-01-12 18:32:00,
2013-01-12 13:42:00,42.0,42.0,30.15,North,0,0.0,0.0,97,-99.99,,,-99.99,,2013-01-12 18:42:00,
2013-01-12 13:52:00,43.0,42.0,30.16,North,0,0.0,0.0,97,-99.99,,,-99.99,,2013-01-12 18:52:00,
2013-01-12 14:02:00,43.0,42.0,30.16,North,0,0.0,0.0,97,-99.99,,,-99.99,,2013-01-12 19:02:00,
2013-01-12 14:11:00,43.0,43.0,30.17,North,0,0.0,0.0,97,-99.99,,,-99.99,,2013-01-12 19:11:00,
2013-01-12 14:22:00,43.0,43.0,30.17,North,0,0.0,0.0,97,-99.99,,,-99.99,,2013-01-12 19:22:00,
2013-01-12 14:32:00,43.0,43.0,30.17,North,0,0.0,0.0,97,-99.99,,,-99.99,,2013-01-12 19:32:00,
2013-01-12 14:42:00,43.0,43.0,30.17,North,0,0.0,0.0,97,-99.99,,,-99.99,,2013-01-12 19:42:00,
2013-01-12 14:52:00,43.0,42.0,30.16,North,0,0.0,0.0,97,-99.99,,,-99.99,,2013-01-12 19:52:00,
2013-01-12 15:02:00,43.0,42.0,30.16,North,0,0.0,0.0,97,-99.99,,,-99.99,,2013-01-12 20:02:00,
2013-01-12 15:11:00,43.0,42.0,30.16,North,0,0.0,0.0,97,-99.99,,,-99.99,,2013-01-12 20:11:00,
2013-01-12 15:22:00,43.0,42.0,30.16,North,0,0.0,0.0,97,-99.99,,,-99.99,,2013-01-12 20:22:00,
2013-01-12 15:32:00,43.0,42.0,30.16,North,0,0.0,0.0,97,-99.99,,,-99.99,,2013-01-12 20:32:00,
2013-01-12 15:42:00,43.0,42.0,30.16,North,0,0.0,0.0,97,-99.99,,,-99.99,,2013-01-12 20:42:00,
2013-01-12 15:52:00,43.0,42.0,30.16,North,0,0.0,0.0,97,-99.99,,,-99.99,,2013-01-12 20:52:00,
2013-01-12 16:02:00,43.0,42.0,30.16,North,0,0.0,0.0,97,-99.99,,,-99.99,,2013-01-12 21:02:00,
2013-01-12 16:12:00,42.0,42.0,30.17,North,0,0.0,0.0,97,-99.99,,,-99.99,,2013-01-12 21:12:00,
2013-01-12 16:22:00,42.0,42.0,30.17,North,0,0.0,0.0,97,-99.99,,,-99.99,,2013-01-12 21:22:00,
2013-01-12 16:32:00,42.0,42.0,30.17,North,0,0.0,0.0,97,-99.99,,,-99.99,,2013-01-12 21:32:00,
2013-01-12 16:42:00,42.0,41.0,30.16,North,0,0.0,2.0,97,-99.99,,,-99.99,,2013-01-12 21:42:00,
2013-01-12 16:52:00,42.0,41.0,30.16,North,0,0.0,2.0,97,-99.99,,,-99.99,,2013-01-12 21:52:00,
2013-01-12 17:02:00,42.0,41.0,30.16,North,0,0.0,2.0,97,-99.99,,,-99.99,,2013-01-12 22:02:00,
2013-01-12 17:11:00,42.0,41.0,30.17,North,0,0.0,2.0,97,-99.99,,,-99.99,,2013-01-12 22:11:00,
2013-01-12 17:22:00,42.0,41.0,30.17,North,0,0.0,2.0,97,-99.99,,,-99.99,,2013-01-12 22:22:00,
2013-01-12 17:32:00,42.0,41.0,30.18,North,0,0.0,0.0,97,-99.99,,,-99.99,,2013-01-12 22:32:00,
2013-01-12 17:42:00,42.0,41.0,30.19,North,0,0.0,0.0,97,-99.99,,,-99.99,,2013-01-12 22:42:00,
2013-01-12 17:52:00,42.0,41.0,30.19,North,0,0.0,0.0,97,-99.99,,,-99.99,,2013-01-12 22:52:00,
2013-01-12 18:02:00,42.0,41.0,30.19,North,0,0.0,0.0,97,-99.99,,,-99.99,,2013-01-12 23:02:00,
2013-01-12 18:12:00,42.0,41.0,30.19,North,0,0.0,0.0,97,-99.99,,,-99.99,,2013-01-12 23:12:00,
2013-01-12 18:21:00,42.0,41.0,30.19,North,0,0.0,0.0,97,-99.99,,,-99.99,,2013-01-12 23:21:00,
2013-01-12 18:32:00,42.0,41.0,30.20,North,0,0.0,0.0,97,-99.99,,,-99.99,,2013-01-12 23:32:00,
2013-01-12 18:42:00,42.0,41.0,30.20,North,0,0.0,0.0,97,-99.99,,,-99.99,,2013-01-12 23:42:00,
2013-01-12 18:52:00,42.0,41.0,30.19,North,0,0.0,0.0,97,-99.99,,,-99.99,,2013-01-12 23:52:00,
2013-01-12 19:02:00,42.0,41.0,30.19,North,0,0.0,0.0,97,-99.99,,,-99.99,,2013-01-13 00:02:00,
2013-01-12 19:11:00,42.0,41.0,30.19,North,0,0.0,0.0,97,-99.99,,,-99.99,,2013-01-13 00:11:00,
2013-01-12 19:22:00,42.0,41.0,30.19,North,0,0.0,0.0,97,-99.99,,,-99.99,,2013-01-13 00:22:00,
2013-01-12 19:32:00,42.0,41.0,30.18,North,0,0.0,0.0,97,-99.99,,,-99.99,,2013-01-13 00:32:00,
2013-01-12 19:42:00,42.0,41.0,30.18,North,0,0.0,0.0,97,-99.99,,,-99.99,,2013-01-13 00:42:00,
2013-01-12 19:52:00,42.0,42.0,30.18,North,0,0.0,0.0,98,-99.99,,,-99.99,,2013-01-13 00:52:00,
2013-01-12 20:02:00,42.0,42.0,30.18,North,0,0.0,0.0,98,-99.99,,,-99.99,,2013-01-13 01:02:00,
2013-01-12 20:11:00,42.0,42.0,30.18,North,0,0.0,0.0,98,-99.99,,,-99.99,,2013-01-13 01:11:00,
2013-01-12 20:22:00,42.0,42.0,30.18,North,0,0.0,0.0,98,-99.99,,,-99.99,,2013-01-13 01:22:00,
2013-01-12 20:32:00,42.0,42.0,30.19,North,0,0.0,0.0,97,-99.99,,,-99.99,,2013-01-13 01:32:00,
2013-01-12 20:42:00,42.0,42.0,30.19,North,0,0.0,0.0,97,-99.99,,,-99.99,,2013-01-13 01:42:00,
2013-01-12 20:52:00,42.0,42.0,30.18,North,0,0.0,0.0,98,-99.99,,,-99.99,,2013-01-13 01:52:00,
2013-01-12 21:01:00,42.0,42.0,30.18,North,0,0.0,0.0,98,-99.99,,,-99.99,,2013-01-13 02:01:00,
2013-01-12 21:12:00,42.0,42.0,30.18,North,0,0.0,0.0,98,-99.99,,,-99.99,,2013-01-13 02:12:00,
2013-01-12 21:22:00,42.0,42.0,30.18,North,0,0.0,0.0,98,-99.99,,,-99.99,,2013-01-13 02:22:00,
2013-01-12 21:32:00,42.0,41.0,30.18,North,0,0.0,0.0,97,-99.99,,,-99.99,,2013-01-13 02:32:00,
2013-01-12 21:42:00,42.0,42.0,30.16,North,0,0.0,0.0,98,-99.99,,,-99.99,,2013-01-13 02:42:00,
2013-01-12 21:52:00,42.0,41.0,30.16,North,0,0.0,0.0,97,-99.99,,,-99.99,,2013-01-13 02:52:00,
2013-01-12 22:02:00,42.0,41.0,30.16,North,0,0.0,0.0,97,-99.99,,,-99.99,,2013-01-13 03:02:00,
2013-01-12 22:11:00,42.0,41.0,30.16,North,0,0.0,0.0,97,-99.99,,,-99.99,,2013-01-13 03:11:00,
2013-01-12 22:22:00,42.0,41.0,30.16,North,0,0.0,0.0,97,-99.99,,,-99.99,,2013-01-13 03:22:00,
2013-01-12 22:32:00,42.0,41.0,30.15,North,0,0.0,0.0,98,-99.99,,,-99.99,,2013-01-13 03:32:00,
2013-01-12 22:42:00,42.0,41.0,30.15,North,0,0.0,0.0,98,-99.99,,,-99.99,,2013-01-13 03:42:00,
2013-01-12 22:52:00,41.0,41.0,30.16,North,0,0.0,0.0,98,-99.99,,,-99.99,,2013-01-13 03:52:00,
2013-01-12 23:02:00,41.0,41.0,30.16,North,0,0.0,0.0,98,-99.99,,,-99.99,,2013-01-13 04:02:00,
2013-01-12 23:12:00,41.0,41.0,30.16,North,0,0.0,0.0,98,-99.99,,,-99.99,,2013-01-13 04:12:00,
2013-01-12 23:22:00,41.0,41.0,30.16,North,0,0.0,0.0,98,-99.99,,,-99.99,,2013-01-13 04:22:00,
2013-01-12 23:32:00,41.0,41.0,30.16,North,0,0.0,0.0,98,-99.99,,,-99.99,,2013-01-13 04:32:00,
2013-01-12 23:42:00,41.0,41.0,30.15,North,0,0.0,0.0,98,-99.99,,,-99.99,,2013-01-13 04:42:00,
2013-01-12 23:52:00,41.0,41.0,30.16,North,0,0.0,0.0,97,-99.99,,,-99.99,,2013-01-13 04:52:00,